| time (UTC) | temp F | wind direction | speed knots | gust knots | rain 1hr in | rain 24hr in | rain mn in | humidity % | barometer mb |
| 20260831203713 | 75 | 269 | 8.7 | 13.0 | 0.00 | 0.00 | 0.00 | 72 | 1012.4 |
| 20260831203207 | 76 | 225 | 9.6 | 13.0 | 0.00 | 0.00 | 0.00 | 72 | 1012.4 |
| 20260831201140 | 76 | 212 | 6.1 | 12.2 | 0.00 | 0.00 | 0.00 | 71 | 1012.4 |
| 20260831200634 | 76 | 242 | 5.2 | 12.2 | 0.00 | 0.00 | 0.00 | 71 | 1012.4 |
| 20260831195114 | 76 | 261 | 6.1 | 11.3 | 0.00 | 0.00 | 0.00 | 71 | 1012.8 |
| 20260831194608 | 76 | 248 | 4.3 | 11.3 | 0.00 | 0.00 | 0.00 | 71 | 1012.8 |
| 20260831194102 | 76 | 322 | 5.2 | 11.3 | 0.00 | 0.00 | 0.00 | 72 | 1012.8 |
| 20260831193554 | 77 | 250 | 2.6 | 8.7 | 0.00 | 0.00 | 0.00 | 70 | 1012.8 |
| 20260831192542 | 76 | 249 | 7.8 | 9.6 | 0.00 | 0.00 | 0.00 | 71 | 1012.8 |
| 20260831192035 | 76 | 292 | 6.1 | 9.6 | 0.00 | 0.00 | 0.00 | 72 | 1012.8 |
| 20260831191529 | 76 | 234 | 7.0 | 8.7 | 0.00 | 0.00 | 0.00 | 73 | 1013.1 |
| 20260831190516 | 76 | 246 | 6.1 | 9.6 | 0.00 | 0.00 | 0.00 | 73 | 1013.1 |
| 20260831190009 | 76 | 233 | 6.1 | 11.3 | 0.00 | 0.00 | 0.00 | 72 | 1013.1 |
| 20260831185502 | 75 | 229 | 4.3 | 12.2 | 0.00 | 0.00 | 0.00 | 74 | 1012.8 |
| 20260831184956 | 75 | 222 | 6.1 | 12.2 | 0.00 | 0.00 | 0.00 | 75 | 1013.1 |
| 20260831184450 | 75 | 244 | 4.3 | 7.8 | 0.00 | 0.00 | 0.00 | 74 | 1012.8 |
| 20260831183943 | 75 | 215 | 4.3 | 11.3 | 0.00 | 0.00 | 0.00 | 75 | 1012.8 |
| 20260831183437 | 75 | 191 | 6.1 | 11.3 | 0.00 | 0.00 | 0.00 | 73 | 1013.1 |
| 20260831182930 | 75 | 228 | 7.0 | 7.8 | 0.00 | 0.00 | 0.00 | 74 | 1013.1 |
| 20260831181917 | 75 | 191 | 7.0 | 9.6 | 0.00 | 0.00 | 0.00 | 74 | 1013.1 |
| 20260831181410 | 75 | 252 | 7.8 | 9.6 | 0.00 | 0.00 | 0.00 | 73 | 1012.8 |
| 20260831180904 | 75 | 227 | 5.2 | 11.3 | 0.00 | 0.00 | 0.00 | 74 | 1013.1 |
| 20260831180357 | 75 | 207 | 3.5 | 11.3 | 0.00 | 0.00 | 0.00 | 73 | 1013.1 |
| 20260831175851 | 75 | 265 | 2.6 | 7.0 | 0.00 | 0.00 | 0.00 | 74 | 1013.1 |
| 20260831175345 | 75 | 281 | 6.1 | 7.0 | 0.00 | 0.00 | 0.00 | 74 | 1013.1 |
| 20260831174837 | 75 | 244 | 2.6 | 7.0 | 0.00 | 0.00 | 0.00 | 74 | 1013.1 |
| 20260831174331 | 75 | 223 | 1.7 | 7.8 | 0.00 | 0.00 | 0.00 | 74 | 1013.1 |
| 20260831173825 | 76 | 255 | 6.1 | 7.8 | 0.00 | 0.00 | 0.00 | 73 | 1013.1 |
| 20260831173319 | 75 | 310 | 1.7 | 7.8 | 0.00 | 0.00 | 0.00 | 73 | 1013.1 |
| 20260831172811 | 75 | 255 | 2.6 | 7.8 | 0.00 | 0.00 | 0.00 | 75 | 1013.1 |
| 20260831172306 | 74 | 236 | 2.6 | 11.3 | 0.00 | 0.00 | 0.00 | 75 | 1013.1 |
| 20260831171759 | 74 | 264 | 1.7 | 11.3 | 0.00 | 0.00 | 0.00 | 76 | 1013.1 |
| 20260831171252 | 74 | 222 | 5.2 | 8.7 | 0.00 | 0.00 | 0.00 | 75 | 1012.8 |
| 20260831170745 | 74 | 257 | 6.1 | 8.7 | 0.00 | 0.00 | 0.00 | 76 | 1013.1 |
| 20260831165733 | 74 | 201 | 5.2 | 7.8 | 0.00 | 0.00 | 0.00 | 76 | 1012.8 |
| 20260831165226 | 74 | 240 | 4.3 | 8.7 | 0.00 | 0.00 | 0.00 | 75 | 1012.8 |
| 20260831164719 | 76 | 234 | 7.8 | 8.7 | 0.00 | 0.00 | 0.00 | 71 | 1012.8 |
| 20260831164214 | 75 | 316 | 0.9 | 3.5 | 0.00 | 0.00 | 0.00 | 72 | 1012.8 |
| 20260831163707 | 75 | 245 | 0.9 | 7.8 | 0.00 | 0.00 | 0.00 | 72 | 1012.4 |
| 20260831163159 | 75 | 185 | 2.6 | 7.8 | 0.00 | 0.00 | 0.00 | 72 | 1012.8 |
| 20260831162653 | 75 | 207 | 2.6 | 5.2 | 0.00 | 0.00 | 0.00 | 72 | 1012.4 |
| 20260831162147 | 74 | 187 | 3.5 | 7.0 | 0.00 | 0.00 | 0.00 | 72 | 1012.4 |
| 20260831161640 | 74 | 182 | 4.3 | 7.0 | 0.00 | 0.00 | 0.00 | 72 | 1012.4 |
| 20260831161134 | 74 | 169 | 3.5 | 6.1 | 0.00 | 0.00 | 0.00 | 71 | 1012.4 |
| 20260831160627 | 75 | 173 | 3.5 | 6.1 | 0.00 | 0.00 | 0.00 | 70 | 1012.4 |
| 20260831160121 | 75 | 219 | 1.7 | 2.6 | 0.00 | 0.00 | 0.00 | 70 | 1012.4 |
| 20260831155615 | 74 | 53 | 1.7 | 5.2 | 0.00 | 0.00 | 0.00 | 72 | 1012.4 |
| 20260831155108 | 75 | 148 | 3.5 | 5.2 | 0.00 | 0.00 | 0.00 | 71 | 1012.4 |
| 20260831154055 | 75 | 111 | 1.7 | 3.5 | 0.00 | 0.00 | 0.00 | 71 | 1012.4 |
| 20260831153548 | 74 | 64 | 1.7 | 3.5 | 0.00 | 0.00 | 0.00 | 71 | 1012.4 |
| 20260831152536 | 74 | 123 | 1.7 | 3.5 | 0.00 | 0.00 | 0.00 | 73 | 1012.4 |
| 20260831152029 | 73 | 220 | 0.9 | 1.7 | 0.00 | 0.00 | 0.00 | 74 | 1012.4 |
| 20260831151523 | 73 | 192 | 1.7 | 1.7 | 0.00 | 0.00 | 0.00 | 75 | 1012.4 |
| 20260831150509 | 71 | 327 | 0.0 | 1.7 | 0.00 | 0.00 | 0.00 | 77 | 1012.4 |
| 20260831150003 | 71 | 327 | 0.9 | 0.9 | 0.00 | 0.00 | 0.00 | 78 | 1012.1 |
| 20260831145456 | 70 | 327 | 0.0 | 0.9 | 0.00 | 0.00 | 0.00 | 79 | 1012.4 |
| 20260831144950 | 69 | 327 | 0.9 | 1.7 | 0.00 | 0.00 | 0.00 | 80 | 1012.1 |
| 20260831143937 | 68 | 327 | 0.9 | 0.9 | 0.00 | 0.00 | 0.00 | 82 | 1012.1 |
| 20260831143430 | 68 | 327 | 0.9 | 1.7 | 0.00 | 0.00 | 0.00 | 83 | 1012.1 |
| 20260831142923 | 67 | 327 | 0.9 | 1.7 | 0.00 | 0.00 | 0.00 | 83 | 1012.1 |
| 20260831141911 | 66 | 327 | 0.9 | 1.7 | 0.00 | 0.00 | 0.00 | 84 | 1011.8 |
| 20260831141404 | 66 | 327 | 0.0 | 0.9 | 0.00 | 0.00 | 0.00 | 85 | 1011.8 |
| 20260831140858 | 66 | 327 | 0.0 | 0.9 | 0.00 | 0.00 | 0.00 | 85 | 1011.8 |
| 20260831135844 | 65 | 327 | 0.0 | 0.9 | 0.00 | 0.00 | 0.00 | 85 | 1011.4 |
| 20260831135338 | 65 | 327 | 0.0 | 0.9 | 0.00 | 0.00 | 0.00 | 85 | 1011.8 |
| 20260831134832 | 65 | 326 | 0.0 | 0.9 | 0.00 | 0.00 | 0.00 | 85 | 1011.4 |
| 20260831134326 | 65 | 326 | 0.9 | 0.9 | 0.00 | 0.00 | 0.00 | 85 | 1011.4 |
| 20260831133819 | 65 | 321 | 0.0 | 0.9 | 0.00 | 0.00 | 0.00 | 85 | 1011.4 |
| 20260831132806 | 65 | 321 | 0.0 | 0.9 | 0.00 | 0.00 | 0.00 | 85 | 1011.1 |
| 20260831132259 | 65 | 321 | 0.9 | 1.7 | 0.00 | 0.00 | 0.00 | 85 | 1011.1 |
| 20260831131753 | 65 | 322 | 0.9 | 2.6 | 0.00 | 0.00 | 0.00 | 85 | 1011.4 |
| 20260831131247 | 65 | 329 | 0.9 | 2.6 | 0.00 | 0.00 | 0.00 | 85 | 1011.4 |
| 20260831130740 | 65 | 316 | 0.9 | 2.6 | 0.00 | 0.00 | 0.00 | 85 | 1011.1 |
| 20260831130233 | 65 | 325 | 0.9 | 2.6 | 0.00 | 0.00 | 0.00 | 85 | 1011.1 |
| 20260831125727 | 65 | 325 | 0.9 | 1.7 | 0.00 | 0.00 | 0.00 | 85 | 1011.1 |
| 20260831125220 | 65 | 319 | 0.9 | 2.6 | 0.00 | 0.00 | 0.00 | 85 | 1011.1 |
| 20260831124714 | 65 | 337 | 1.7 | 2.6 | 0.00 | 0.00 | 0.00 | 85 | 1011.1 |
| 20260831124207 | 65 | 333 | 0.9 | 2.6 | 0.00 | 0.00 | 0.00 | 85 | 1011.1 |
| 20260831123701 | 65 | 325 | 0.9 | 2.6 | 0.00 | 0.00 | 0.00 | 85 | 1011.1 |
| 20260831123154 | 65 | 313 | 1.7 | 2.6 | 0.00 | 0.00 | 0.00 | 85 | 1011.1 |
| 20260831122648 | 66 | 327 | 0.9 | 1.7 | 0.00 | 0.00 | 0.00 | 85 | 1011.1 |
| 20260831122142 | 66 | 317 | 0.9 | 1.7 | 0.00 | 0.00 | 0.00 | 85 | 1011.1 |
| 20260831121128 | 66 | 334 | 1.7 | 1.7 | 0.00 | 0.00 | 0.00 | 85 | 1011.1 |
| 20260831120622 | 66 | 314 | 0.0 | 1.7 | 0.00 | 0.00 | 0.00 | 85 | 1011.1 |
| 20260831120116 | 66 | 320 | 0.9 | 1.7 | 0.00 | 0.00 | 0.00 | 85 | 1011.1 |
| 20260831115104 | 66 | 331 | 1.7 | 2.6 | 0.00 | 0.00 | 0.00 | 85 | 1011.1 |
| 20260831113543 | 67 | 310 | 0.0 | 1.7 | 0.00 | 0.00 | 0.00 | 84 | 1011.1 |
| 20260831113036 | 67 | 318 | 0.9 | 1.7 | 0.00 | 0.00 | 0.00 | 85 | 1011.1 |
| 20260831112530 | 67 | 324 | 0.9 | 0.9 | 0.00 | 0.00 | 0.00 | 85 | 1011.1 |
| 20260831112024 | 67 | 330 | 0.9 | 0.9 | 0.00 | 0.00 | 0.00 | 85 | 1011.1 |
| 20260831111516 | 67 | 319 | 0.0 | 2.6 | 0.00 | 0.00 | 0.00 | 85 | 1011.1 |
| 20260831111010 | 67 | 308 | 0.0 | 2.6 | 0.00 | 0.00 | 0.00 | 84 | 1011.1 |
| 20260831110504 | 67 | 318 | 1.7 | 2.6 | 0.00 | 0.00 | 0.00 | 84 | 1011.1 |
| 20260831105957 | 67 | 324 | 1.7 | 1.7 | 0.00 | 0.00 | 0.00 | 84 | 1011.4 |
| 20260831105451 | 67 | 337 | 0.9 | 1.7 | 0.00 | 0.00 | 0.00 | 84 | 1011.1 |
| 20260831104945 | 67 | 336 | 0.0 | 1.7 | 0.00 | 0.00 | 0.00 | 84 | 1011.1 |
| 20260831103932 | 68 | 336 | 0.0 | 0.9 | 0.00 | 0.00 | 0.00 | 84 | 1011.1 |
| 20260831103424 | 68 | 336 | 0.0 | 0.9 | 0.00 | 0.00 | 0.00 | 83 | 1011.1 |
| 20260831102918 | 68 | 336 | 0.0 | 0.9 | 0.00 | 0.00 | 0.00 | 84 | 1011.1 |
| 20260831102412 | 68 | 336 | 0.9 | 1.7 | 0.00 | 0.00 | 0.00 | 84 | 1011.1 |
| 20260831101905 | 68 | 336 | 0.0 | 1.7 | 0.00 | 0.00 | 0.00 | 83 | 1011.1 |
| 20260831101359 | 68 | 322 | 0.9 | 1.7 | 0.00 | 0.00 | 0.00 | 83 | 1011.1 |
| 20260831100853 | 68 | 320 | 0.9 | 1.7 | 0.00 | 0.00 | 0.00 | 83 | 1011.1 |
| 20260831100346 | 68 | 316 | 0.0 | 1.7 | 0.00 | 0.00 | 0.00 | 83 | 1011.1 |
| 20260831095840 | 68 | 322 | 1.7 | 1.7 | 0.00 | 0.00 | 0.00 | 83 | 1011.4 |
| 20260831095333 | 69 | 319 | 0.0 | 1.7 | 0.00 | 0.00 | 0.00 | 83 | 1011.4 |
| 20260831094826 | 69 | 316 | 0.9 | 1.7 | 0.00 | 0.00 | 0.00 | 83 | 1011.1 |
| 20260831094320 | 69 | 257 | 0.0 | 1.7 | 0.00 | 0.00 | 0.00 | 83 | 1011.1 |
| 20260831093814 | 69 | 247 | 0.0 | 0.9 | 0.00 | 0.00 | 0.00 | 83 | 1011.1 |
| 20260831093307 | 69 | 231 | 0.0 | 2.6 | 0.00 | 0.00 | 0.00 | 83 | 1011.1 |
| 20260831092800 | 69 | 253 | 0.0 | 3.5 | 0.00 | 0.00 | 0.00 | 82 | 1011.1 |
| 20260831092254 | 69 | 170 | 1.7 | 3.5 | 0.00 | 0.00 | 0.00 | 82 | 1011.1 |
| 20260831091240 | 70 | 359 | 0.0 | 2.6 | 0.00 | 0.00 | 0.00 | 81 | 1011.1 |
| 20260831090734 | 70 | 355 | 0.9 | 2.6 | 0.00 | 0.00 | 0.00 | 81 | 1011.1 |
| 20260831090228 | 70 | 67 | 1.7 | 3.5 | 0.00 | 0.00 | 0.00 | 80 | 1011.1 |
| 20260831085722 | 70 | 89 | 2.6 | 5.2 | 0.00 | 0.00 | 0.00 | 79 | 1011.1 |
| 20260831085215 | 70 | 158 | 2.6 | 5.2 | 0.00 | 0.00 | 0.00 | 77 | 1011.1 |
| 20260831084708 | 70 | 214 | 0.9 | 3.5 | 0.00 | 0.00 | 0.00 | 76 | 1011.1 |
| 20260831083655 | 70 | 350 | 0.0 | 5.2 | 0.00 | 0.00 | 0.00 | 75 | 1011.1 |
| 20260831083149 | 70 | 70 | 2.6 | 5.2 | 0.00 | 0.00 | 0.00 | 75 | 1011.1 |
| 20260831082642 | 70 | 72 | 1.7 | 5.2 | 0.00 | 0.00 | 0.00 | 75 | 1011.1 |
| 20260831081629 | 71 | 90 | 1.7 | 3.5 | 0.00 | 0.00 | 0.00 | 75 | 1011.1 |
| 20260831081123 | 71 | 74 | 1.7 | 3.5 | 0.00 | 0.00 | 0.00 | 75 | 1011.1 |
| 20260831080616 | 71 | 57 | 2.6 | 3.5 | 0.00 | 0.00 | 0.00 | 74 | 1011.1 |
| 20260831075604 | 71 | 34 | 1.7 | 3.5 | 0.00 | 0.00 | 0.00 | 74 | 1011.1 |
| 20260831075056 | 70 | 108 | 1.7 | 3.5 | 0.00 | 0.00 | 0.00 | 75 | 1011.1 |
| 20260831074044 | 70 | 40 | 2.6 | 2.6 | 0.00 | 0.00 | 0.00 | 75 | 1011.1 |
| 20260831073538 | 70 | 109 | 1.7 | 1.7 | 0.00 | 0.00 | 0.00 | 75 | 1011.1 |
| 20260831073031 | 71 | 141 | 0.9 | 2.6 | 0.00 | 0.00 | 0.00 | 75 | 1010.7 |
| 20260831072524 | 71 | 17 | 1.7 | 2.6 | 0.00 | 0.00 | 0.00 | 75 | 1010.7 |
| 20260831071511 | 70 | 80 | 0.9 | 2.6 | 0.00 | 0.00 | 0.00 | 76 | 1010.7 |
| 20260831071005 | 70 | 17 | 0.9 | 2.6 | 0.00 | 0.00 | 0.00 | 76 | 1010.7 |
| 20260831070459 | 70 | 11 | 0.9 | 3.5 | 0.00 | 0.00 | 0.00 | 76 | 1010.7 |
| 20260831065952 | 70 | 0 | 0.9 | 3.5 | 0.00 | 0.00 | 0.00 | 76 | 1010.7 |
| 20260831065446 | 70 | 342 | 0.0 | 2.6 | 0.00 | 0.00 | 0.00 | 77 | 1010.7 |
| 20260831064938 | 70 | 121 | 1.7 | 2.6 | 0.00 | 0.00 | 0.00 | 77 | 1010.7 |
| 20260831064432 | 70 | 147 | 1.7 | 2.6 | 0.00 | 0.00 | 0.00 | 77 | 1010.7 |
| 20260831063926 | 70 | 54 | 0.9 | 3.5 | 0.00 | 0.00 | 0.00 | 78 | 1010.7 |
| 20260831063420 | 70 | 58 | 2.6 | 3.5 | 0.00 | 0.00 | 0.00 | 79 | 1010.7 |
| 20260831062406 | 70 | 104 | 0.9 | 2.6 | 0.00 | 0.00 | 0.00 | 79 | 1010.7 |
| 20260831061900 | 70 | 116 | 1.7 | 2.6 | 0.00 | 0.00 | 0.00 | 79 | 1010.7 |
| 20260831061354 | 70 | 238 | 0.9 | 3.5 | 0.00 | 0.00 | 0.00 | 79 | 1010.7 |
| 20260831060847 | 70 | 245 | 0.0 | 3.5 | 0.00 | 0.00 | 0.00 | 80 | 1010.7 |
| 20260831060340 | 70 | 171 | 1.7 | 3.5 | 0.00 | 0.00 | 0.00 | 80 | 1010.7 |
| 20260831055834 | 70 | 224 | 0.9 | 3.5 | 0.00 | 0.00 | 0.00 | 81 | 1010.7 |
| 20260831055327 | 70 | 188 | 1.7 | 3.5 | 0.00 | 0.00 | 0.00 | 81 | 1010.7 |
| 20260831054315 | 70 | 193 | 1.7 | 2.6 | 0.00 | 0.00 | 0.00 | 82 | 1010.7 |
| 20260831053808 | 70 | 184 | 2.6 | 3.5 | 0.00 | 0.00 | 0.00 | 82 | 1010.7 |
| 20260831053302 | 70 | 192 | 2.6 | 3.5 | 0.00 | 0.00 | 0.00 | 82 | 1010.7 |
| 20260831052248 | 70 | 261 | 0.0 | 3.5 | 0.00 | 0.00 | 0.00 | 82 | 1010.7 |
| 20260831051742 | 70 | 256 | 0.0 | 3.5 | 0.00 | 0.00 | 0.00 | 82 | 1010.7 |
| 20260831051236 | 70 | 188 | 2.6 | 3.5 | 0.00 | 0.00 | 0.00 | 82 | 1010.7 |
| 20260831050729 | 70 | 156 | 1.7 | 3.5 | 0.00 | 0.00 | 0.00 | 82 | 1010.7 |
| 20260831050223 | 70 | 230 | 1.7 | 5.2 | 0.00 | 0.00 | 0.00 | 81 | 1010.7 |
| 20260831044704 | 71 | 201 | 1.7 | 3.5 | 0.00 | 0.00 | 0.00 | 80 | 1010.7 |
| 20260831043650 | 71 | 231 | 0.9 | 1.7 | 0.00 | 0.00 | 0.00 | 79 | 1010.7 |
| 20260831042131 | 71 | 231 | 0.9 | 1.7 | 0.00 | 0.00 | 0.00 | 79 | 1010.4 |
| 20260831041624 | 71 | 218 | 1.7 | 2.6 | 0.00 | 0.00 | 0.00 | 79 | 1010.7 |
| 20260831041118 | 71 | 241 | 0.9 | 2.6 | 0.00 | 0.00 | 0.00 | 79 | 1010.4 |
| 20260831040105 | 71 | 267 | 0.9 | 2.6 | 0.00 | 0.00 | 0.00 | 78 | 1010.4 |
| 20260831035559 | 71 | 215 | 1.7 | 3.5 | 0.00 | 0.00 | 0.00 | 78 | 1010.4 |
| 20260831035051 | 71 | 209 | 1.7 | 3.5 | 0.00 | 0.00 | 0.00 | 78 | 1010.4 |
| 20260831034545 | 71 | 254 | 0.9 | 2.6 | 0.00 | 0.00 | 0.00 | 78 | 1010.1 |
| 20260831034039 | 71 | 212 | 1.7 | 2.6 | 0.00 | 0.00 | 0.00 | 79 | 1010.1 |
| 20260831033532 | 71 | 197 | 2.6 | 2.6 | 0.00 | 0.00 | 0.00 | 79 | 1010.1 |
| 20260831033025 | 71 | 233 | 1.7 | 2.6 | 0.00 | 0.00 | 0.00 | 79 | 1009.7 |
| 20260831032519 | 71 | 241 | 1.7 | 3.5 | 0.00 | 0.00 | 0.00 | 79 | 1009.7 |
| 20260831032012 | 71 | 208 | 1.7 | 3.5 | 0.00 | 0.00 | 0.00 | 79 | 1010.1 |
| 20260831031506 | 71 | 210 | 1.7 | 3.5 | 0.00 | 0.00 | 0.00 | 79 | 1009.7 |
| 20260831031000 | 71 | 238 | 1.7 | 3.5 | 0.00 | 0.00 | 0.00 | 79 | 1009.7 |
| 20260831030454 | 71 | 230 | 0.9 | 3.5 | 0.00 | 0.00 | 0.00 | 79 | 1009.7 |
| 20260831025946 | 71 | 250 | 1.7 | 3.5 | 0.00 | 0.00 | 0.00 | 79 | 1009.4 |
| 20260831025440 | 72 | 220 | 3.5 | 3.5 | 0.00 | 0.00 | 0.00 | 78 | 1009.7 |
| 20260831023922 | 72 | 222 | 1.7 | 3.5 | 0.00 | 0.00 | 0.00 | 79 | 1009.4 |
| 20260831023414 | 72 | 197 | 2.6 | 3.5 | 0.00 | 0.00 | 0.00 | 79 | 1009.4 |
| 20260831022907 | 72 | 208 | 2.6 | 3.5 | 0.00 | 0.00 | 0.00 | 79 | 1009.4 |
| 20260831022400 | 73 | 235 | 1.7 | 3.5 | 0.00 | 0.00 | 0.00 | 78 | 1009.4 |
| 20260831021854 | 73 | 211 | 3.5 | 3.5 | 0.00 | 0.00 | 0.00 | 77 | 1009.4 |
| 20260831021348 | 73 | 217 | 2.6 | 6.1 | 0.00 | 0.00 | 0.00 | 76 | 1009.4 |
| 20260831020841 | 74 | 227 | 1.7 | 6.1 | 0.00 | 0.00 | 0.00 | 76 | 1009.4 |
| 20260831020334 | 74 | 253 | 1.7 | 5.2 | 0.00 | 0.00 | 0.00 | 75 | 1009.4 |
| 20260831015828 | 74 | 201 | 3.5 | 3.5 | 0.00 | 0.00 | 0.00 | 74 | 1009.4 |
| 20260831015322 | 74 | 214 | 1.7 | 5.2 | 0.00 | 0.00 | 0.00 | 74 | 1009.0 |
| 20260831014815 | 74 | 228 | 2.6 | 5.2 | 0.00 | 0.00 | 0.00 | 74 | 1009.4 |
| 20260831014308 | 75 | 194 | 2.6 | 6.1 | 0.00 | 0.00 | 0.00 | 74 | 1009.4 |
| 20260831013802 | 75 | 224 | 1.7 | 7.0 | 0.00 | 0.00 | 0.00 | 73 | 1009.4 |
| 20260831013256 | 75 | 350 | 2.6 | 7.8 | 0.00 | 0.00 | 0.00 | 73 | 1009.4 |
| 20260831012750 | 75 | 217 | 4.3 | 7.8 | 0.00 | 0.00 | 0.00 | 71 | 1009.4 |
| 20260831011736 | 76 | 253 | 4.3 | 7.0 | 0.00 | 0.00 | 0.00 | 70 | 1009.4 |
| 20260831011229 | 76 | 200 | 2.6 | 7.0 | 0.00 | 0.00 | 0.00 | 69 | 1009.4 |
| 20260831010723 | 76 | 233 | 7.0 | 7.0 | 0.00 | 0.00 | 0.00 | 69 | 1009.4 |
| 20260831010217 | 76 | 225 | 4.3 | 7.0 | 0.00 | 0.00 | 0.00 | 69 | 1009.4 |
| 20260831005709 | 76 | 262 | 2.6 | 8.7 | 0.00 | 0.00 | 0.00 | 71 | 1009.4 |
| 20260831004150 | 76 | 245 | 4.3 | 8.7 | 0.00 | 0.00 | 0.00 | 72 | 1009.4 |
| 20260831003644 | 76 | 262 | 3.5 | 8.7 | 0.00 | 0.00 | 0.00 | 73 | 1009.4 |
| 20260831002631 | 75 | 258 | 6.1 | 11.3 | 0.00 | 0.00 | 0.00 | 74 | 1009.4 |
| 20260831002124 | 75 | 231 | 6.1 | 11.3 | 0.00 | 0.00 | 0.00 | 73 | 1009.4 |
| 20260831001618 | 76 | 228 | 5.2 | 12.2 | 0.00 | 0.00 | 0.00 | 72 | 1009.4 |
| 20260831001112 | 76 | 220 | 8.7 | 12.2 | 0.00 | 0.00 | 0.00 | 71 | 1009.4 |
| 20260831000604 | 76 | 269 | 4.3 | 11.3 | 0.00 | 0.00 | 0.00 | 72 | 1009.4 |
| 20260831000058 | 76 | 247 | 4.3 | 11.3 | 0.00 | 0.00 | 0.00 | 72 | 1009.4 |
| 20260830235552 | 77 | 257 | 6.1 | 11.3 | 0.00 | 0.00 | 0.00 | 71 | 1009.4 |
| 20260830235046 | 77 | 218 | 8.7 | 11.3 | 0.00 | 0.00 | 0.00 | 70 | 1009.4 |
| 20260830234538 | 77 | 216 | 5.2 | 12.2 | 0.00 | 0.00 | 0.00 | 69 | 1009.4 |
| 20260830233526 | 77 | 222 | 4.3 | 9.6 | 0.00 | 0.00 | 0.00 | 69 | 1009.7 |
| 20260830233020 | 78 | 243 | 8.7 | 9.6 | 0.00 | 0.00 | 0.00 | 69 | 1009.4 |
| 20260830232512 | 78 | 235 | 5.2 | 11.3 | 0.00 | 0.00 | 0.00 | 67 | 1009.4 |
| 20260830231500 | 79 | 252 | 7.0 | 12.2 | 0.00 | 0.00 | 0.00 | 68 | 1009.4 |
| 20260830230953 | 79 | 211 | 7.8 | 9.6 | 0.00 | 0.00 | 0.00 | 68 | 1009.7 |
| 20260830230447 | 79 | 197 | 7.0 | 11.3 | 0.00 | 0.00 | 0.00 | 67 | 1009.7 |
| 20260830225940 | 80 | 232 | 8.7 | 11.3 | 0.00 | 0.00 | 0.00 | 66 | 1009.7 |
| 20260830225434 | 80 | 232 | 6.1 | 9.6 | 0.00 | 0.00 | 0.00 | 64 | 1009.7 |
| 20260830224927 | 80 | 238 | 8.7 | 9.6 | 0.00 | 0.00 | 0.00 | 63 | 1009.7 |
| 20260830224421 | 80 | 241 | 5.2 | 9.6 | 0.00 | 0.00 | 0.00 | 64 | 1009.7 |
| 20260830223913 | 80 | 281 | 5.2 | 9.6 | 0.00 | 0.00 | 0.00 | 64 | 1009.7 |
| 20260830223407 | 80 | 224 | 7.0 | 9.6 | 0.00 | 0.00 | 0.00 | 64 | 1010.1 |
| 20260830222901 | 80 | 238 | 5.2 | 11.3 | 0.00 | 0.00 | 0.00 | 62 | 1010.1 |
| 20260830222354 | 80 | 219 | 9.6 | 12.2 | 0.00 | 0.00 | 0.00 | 61 | 1010.1 |
| 20260830221848 | 80 | 203 | 7.0 | 9.6 | 0.00 | 0.00 | 0.00 | 63 | 1010.1 |
| 20260830221342 | 79 | 202 | 5.2 | 11.3 | 0.00 | 0.00 | 0.00 | 65 | 1010.1 |
| 20260830220834 | 79 | 223 | 6.1 | 11.3 | 0.00 | 0.00 | 0.00 | 64 | 1010.1 |
| 20260830220328 | 79 | 224 | 6.1 | 11.3 | 0.00 | 0.00 | 0.00 | 65 | 1010.4 |
| 20260830215315 | 80 | 223 | 6.1 | 11.3 | 0.00 | 0.00 | 0.00 | 66 | 1010.4 |
| 20260830214808 | 81 | 251 | 6.1 | 11.3 | 0.00 | 0.00 | 0.00 | 65 | 1010.4 |
| 20260830214302 | 81 | 278 | 5.2 | 9.6 | 0.00 | 0.00 | 0.00 | 62 | 1010.7 |
| 20260830213248 | 80 | 252 | 7.0 | 11.3 | 0.00 | 0.00 | 0.00 | 65 | 1010.7 |
| 20260830212742 | 80 | 251 | 4.3 | 11.3 | 0.00 | 0.00 | 0.00 | 66 | 1010.7 |
| 20260830212236 | 80 | 193 | 6.1 | 11.3 | 0.00 | 0.00 | 0.00 | 64 | 1010.7 |
| 20260830211729 | 81 | 217 | 4.3 | 11.3 | 0.00 | 0.00 | 0.00 | 61 | 1010.7 |
| 20260830210716 | 81 | 229 | 7.8 | 11.3 | 0.00 | 0.00 | 0.00 | 61 | 1010.7 |
| 20260830210210 | 80 | 214 | 6.1 | 9.6 | 0.00 | 0.00 | 0.00 | 63 | 1011.1 |
| 20260830205157 | 80 | 202 | 6.1 | 12.2 | 0.00 | 0.00 | 0.00 | 63 | 1011.1 |
| 20260830204650 | 80 | 240 | 7.8 | 12.2 | 0.00 | 0.00 | 0.00 | 62 | 1010.7 |
| 20260830204144 | 80 | 233 | 7.8 | 13.0 | 0.00 | 0.00 | 0.00 | 61 | 1011.1 |